APG171 RPVM-RPVE

Flight info

Callsign APG171
Flight time 0h 39m
Altitude 24000
Route PARAO4P PARAO W6A ROX TR15 KLO KLO7A
Aircraft A320/M-SDE3FGHIRWY/LB1

Departure

Time 2026-04-22 16:28
Airport Mactan Cebu International Airport (RPVM)

Arrival

Time 2026-04-22 17:07
Airport Godofredo P. Ramos Airport (RPVE)
Time Latitude Longitude Altitude Speed Heading
2026-04-22 16:05 10.31254 123.97769 37 ft 0 kts 265°
2026-04-22 16:17 10.31256 123.97781 37 ft 3 kts 260°
2026-04-22 16:17 10.31260 123.97801 37 ft 3 kts 250°
2026-04-22 16:17 10.31268 123.97820 37 ft 3 kts 241°
2026-04-22 16:17 10.31279 123.97838 36 ft 3 kts 233°
2026-04-22 16:18 10.31292 123.97853 35 ft 3 kts 225°
2026-04-22 16:18 10.31306 123.97867 37 ft 3 kts 218°
2026-04-22 16:18 10.31323 123.97879 35 ft 3 kts 211°
2026-04-22 16:18 10.31341 123.97889 34 ft 3 kts 201°
2026-04-22 16:19 10.31358 123.97895 35 ft 2 kts 191°
2026-04-22 16:19 10.31361 123.97896 35 ft 1 kts 189°
2026-04-22 16:21 10.31353 123.97894 33 ft 4 kts 189°
2026-04-22 16:21 10.31306 123.97909 37 ft 8 kts 136°
2026-04-22 16:22 10.31256 123.97958 37 ft 5 kts 124°
2026-04-22 16:22 10.31201 123.97977 37 ft 11 kts 204°
2026-04-22 16:22 10.31164 123.97946 35 ft 10 kts 226°
2026-04-22 16:23 10.30991 123.97774 36 ft 24 kts 225°
2026-04-22 16:23 10.30872 123.97653 36 ft 24 kts 225°
2026-04-22 16:23 10.30755 123.97535 37 ft 24 kts 224°
2026-04-22 16:24 10.30635 123.97417 35 ft 24 kts 224°
2026-04-22 16:24 10.30524 123.97420 37 ft 7 kts 123°
2026-04-22 16:24 10.30536 123.97457 36 ft 5 kts 46°
2026-04-22 16:25 10.30544 123.97464 35 ft 0 kts 43°
2026-04-22 16:27 10.30553 123.97473 37 ft 11 kts 43°
2026-04-22 16:27 10.30813 123.97732 37 ft 90 kts 44°
2026-04-22 16:27 10.31404 123.98324 37 ft 146 kts 44°
2026-04-22 16:27 10.32185 123.99144 353 ft 170 kts 46°
2026-04-22 16:28 10.32983 124.00094 913 ft 183 kts 50°
2026-04-22 16:28 10.33875 124.00991 1649 ft 179 kts 36°
2026-04-22 16:28 10.34959 124.01696 2103 ft 192 kts 33°
2026-04-22 16:28 10.36206 124.02195 2712 ft 195 kts
2026-04-22 16:29 10.37530 124.01979 3400 ft 199 kts 335°
2026-04-22 16:29 10.38564 124.00992 3874 ft 217 kts 301°
2026-04-22 16:29 10.39001 123.99433 4097 ft 249 kts 271°
2026-04-22 16:29 10.38617 123.97635 4464 ft 274 kts 244°
2026-04-22 16:30 10.37946 123.96539 4922 ft 280 kts 229°
2026-04-22 16:30 10.36531 123.95393 5743 ft 280 kts 203°
2026-04-22 16:30 10.34649 123.94971 6629 ft 278 kts 176°
2026-04-22 16:30 10.32785 123.95457 7449 ft 279 kts 149°
2026-04-22 16:31 10.31331 123.96751 8227 ft 282 kts 123°
2026-04-22 16:31 10.30591 123.98588 8976 ft 286 kts 97°
2026-04-22 16:31 10.30716 124.00609 9700 ft 292 kts 73°
2026-04-22 16:31 10.31669 124.02437 10303 ft 300 kts 49°
2026-04-22 16:32 10.33357 124.03738 10746 ft 314 kts 22°
2026-04-22 16:32 10.35523 124.04130 11159 ft 325 kts 354°
2026-04-22 16:32 10.37750 124.03554 11525 ft 339 kts 335°
2026-04-22 16:32 10.39846 124.02357 11848 ft 354 kts 324°
2026-04-22 16:33 10.41824 124.00804 12226 ft 365 kts 319°
2026-04-22 16:33 10.43747 123.99093 12840 ft 369 kts 317°
2026-04-22 16:33 10.45673 123.97346 13505 ft 373 kts 317°
2026-04-22 16:33 10.47645 123.95617 14095 ft 376 kts 319°
2026-04-22 16:34 10.49676 123.93922 14637 ft 380 kts 320°
2026-04-22 16:34 10.51761 123.92254 15183 ft 384 kts 321°
2026-04-22 16:34 10.53885 123.90592 15722 ft 387 kts 322°
2026-04-22 16:34 10.56037 123.88925 16235 ft 391 kts 322°
2026-04-22 16:35 10.58188 123.87215 16760 ft 394 kts 317°
2026-04-22 16:35 10.60079 123.85194 17244 ft 396 kts 307°
2026-04-22 16:35 10.61720 123.82930 17721 ft 400 kts 305°
2026-04-22 16:35 10.63364 123.80639 18187 ft 403 kts 305°
2026-04-22 16:36 10.65023 123.78326 18596 ft 407 kts 305°
2026-04-22 16:36 10.66696 123.75995 19004 ft 410 kts 305°
2026-04-22 16:36 10.68385 123.73649 19410 ft 412 kts 305°
2026-04-22 16:36 10.70087 123.71291 19815 ft 415 kts 306°
2026-04-22 16:37 10.71803 123.68915 20211 ft 418 kts 306°
2026-04-22 16:37 10.73529 123.66526 20605 ft 421 kts 306°
2026-04-22 16:37 10.75265 123.64122 20999 ft 423 kts 306°
2026-04-22 16:37 10.77011 123.61696 21381 ft 426 kts 306°
2026-04-22 16:38 10.78764 123.59253 21765 ft 429 kts 306°
2026-04-22 16:38 10.80530 123.56793 22142 ft 432 kts 306°
2026-04-22 16:38 10.82144 123.54541 22484 ft 434 kts 306°
2026-04-22 16:38 10.84000 123.51957 22874 ft 438 kts 306°
2026-04-22 16:39 10.85802 123.49449 23247 ft 440 kts 306°
2026-04-22 16:39 10.87613 123.46926 23589 ft 443 kts 306°
2026-04-22 16:39 10.89435 123.44390 23826 ft 444 kts 306°
2026-04-22 16:39 10.91266 123.41847 23894 ft 450 kts 307°
2026-04-22 16:40 10.93360 123.39440 23906 ft 459 kts 316°
2026-04-22 16:40 10.95685 123.37214 23904 ft 459 kts 316°
2026-04-22 16:40 11.00338 123.32760 23904 ft 459 kts 316°
2026-04-22 16:41 11.02659 123.30528 23905 ft 459 kts 316°
2026-04-22 16:41 11.04972 123.28297 23907 ft 459 kts 316°
2026-04-22 16:41 11.07287 123.26060 23902 ft 458 kts 316°
2026-04-22 16:41 11.09600 123.23829 23902 ft 458 kts 316°
2026-04-22 16:42 11.11920 123.21594 23903 ft 459 kts 316°
2026-04-22 16:42 11.14235 123.19367 23903 ft 458 kts 316°
2026-04-22 16:42 11.16555 123.17137 23903 ft 458 kts 316°
2026-04-22 16:42 11.18870 123.14910 23904 ft 458 kts 316°
2026-04-22 16:43 11.21185 123.12682 23906 ft 458 kts 316°
2026-04-22 16:43 11.23504 123.10449 23908 ft 458 kts 316°
2026-04-22 16:43 11.25820 123.08216 23908 ft 458 kts 315°
2026-04-22 16:43 11.28136 123.05982 23907 ft 458 kts 316°
2026-04-22 16:44 11.30450 123.03752 23910 ft 458 kts 316°
2026-04-22 16:44 11.32765 123.01521 23910 ft 458 kts 315°
2026-04-22 16:44 11.35078 122.99291 23913 ft 458 kts 315°
2026-04-22 16:44 11.37392 122.97060 23909 ft 458 kts 316°
2026-04-22 16:45 11.39706 122.94828 23910 ft 458 kts 315°
2026-04-22 16:45 11.42018 122.92596 23913 ft 458 kts 315°
2026-04-22 16:45 11.44328 122.90363 23913 ft 458 kts 315°
2026-04-22 16:45 11.46636 122.88132 23915 ft 458 kts 315°
2026-04-22 16:46 11.48946 122.85898 23914 ft 458 kts 315°
2026-04-22 16:46 11.51254 122.83665 23909 ft 458 kts 315°
2026-04-22 16:46 11.53565 122.81429 23913 ft 457 kts 315°
2026-04-22 16:46 11.55869 122.79198 23910 ft 457 kts 314°
2026-04-22 16:47 11.57951 122.76756 23911 ft 456 kts 304°
2026-04-22 16:47 11.59584 122.74001 23906 ft 454 kts 294°
2026-04-22 16:47 11.60398 122.72038 23908 ft 453 kts 288°
2026-04-22 16:47 11.61476 122.67894 23903 ft 452 kts 282°
2026-04-22 16:48 11.62198 122.64773 23909 ft 452 kts 282°
2026-04-22 16:48 11.62922 122.61654 23911 ft 452 kts 282°
2026-04-22 16:48 11.63648 122.58539 23913 ft 452 kts 282°
2026-04-22 16:48 11.64373 122.55432 23757 ft 446 kts 282°
2026-04-22 16:49 11.65088 122.52373 23219 ft 442 kts 282°
2026-04-22 16:49 11.65799 122.49336 22507 ft 439 kts 282°
2026-04-22 16:49 11.66505 122.46319 21877 ft 435 kts 282°
2026-04-22 16:49 11.67203 122.43330 21253 ft 431 kts 282°
2026-04-22 16:50 11.67967 122.40385 20658 ft 428 kts 288°
2026-04-22 16:50 11.69157 122.37654 20079 ft 426 kts 298°
2026-04-22 16:50 11.70828 122.35169 19492 ft 424 kts 308°
2026-04-22 16:50 11.72673 122.32839 18936 ft 420 kts 308°
2026-04-22 16:51 11.74499 122.30526 18394 ft 417 kts 308°
2026-04-22 16:51 11.76310 122.28227 17808 ft 414 kts 308°
2026-04-22 16:51 11.78100 122.25947 17256 ft 409 kts 308°
2026-04-22 16:51 11.79872 122.23689 16721 ft 405 kts 308°
2026-04-22 16:52 11.81624 122.21454 16161 ft 402 kts 308°
2026-04-22 16:52 11.83363 122.19235 15603 ft 399 kts 308°
2026-04-22 16:52 11.85096 122.17025 15026 ft 398 kts 308°
2026-04-22 16:52 11.86822 122.14826 14445 ft 396 kts 308°
2026-04-22 16:53 11.88544 122.12631 13842 ft 396 kts 308°
2026-04-22 16:53 11.90263 122.10439 13185 ft 395 kts 308°
2026-04-22 16:53 11.91975 122.08255 12551 ft 392 kts 308°
2026-04-22 16:53 11.93673 122.06087 11930 ft 390 kts 309°
2026-04-22 16:54 11.95363 122.03931 11297 ft 388 kts 309°
2026-04-22 16:54 11.97034 122.01780 10662 ft 386 kts 308°
2026-04-22 16:54 11.98691 121.99633 10065 ft 383 kts 308°
2026-04-22 16:54 12.00303 121.97544 9943 ft 366 kts 309°
2026-04-22 16:55 12.01849 121.95555 9825 ft 350 kts 307°
2026-04-22 16:55 12.02909 121.93396 9709 ft 335 kts 284°
2026-04-22 16:55 12.03010 121.91081 9585 ft 322 kts 259°
2026-04-22 16:55 12.02204 121.89010 9456 ft 309 kts 236°
2026-04-22 16:56 12.01000 121.87240 9098 ft 299 kts 234°
2026-04-22 16:56 11.99802 121.85504 8617 ft 300 kts 234°
2026-04-22 16:56 11.98599 121.83765 8182 ft 300 kts 234°
2026-04-22 16:56 11.97395 121.82020 7742 ft 300 kts 234°
2026-04-22 16:57 11.96194 121.80277 7349 ft 300 kts 234°
2026-04-22 16:57 11.95009 121.78557 6989 ft 298 kts 234°
2026-04-22 16:57 11.93800 121.76798 6585 ft 298 kts 234°
2026-04-22 16:57 11.92477 121.75218 6166 ft 295 kts 216°
2026-04-22 16:58 11.91288 121.74511 5834 ft 293 kts 197°
2026-04-22 16:58 11.88683 121.74320 5180 ft 280 kts 162°
2026-04-22 16:58 11.86945 121.75070 4742 ft 265 kts 149°
2026-04-22 16:58 11.85324 121.75955 4318 ft 259 kts 142°
2026-04-22 16:59 11.84261 121.77319 3929 ft 244 kts 105°
2026-04-22 16:59 11.84245 121.78992 3580 ft 234 kts 70°
2026-04-22 16:59 11.85063 121.80385 3242 ft 228 kts 58°
2026-04-22 16:59 11.85838 121.81759 2923 ft 219 kts 63°
2026-04-22 17:00 11.86521 121.83185 2706 ft 232 kts 66°
2026-04-22 17:00 11.88055 121.85976 2995 ft 226 kts 50°
2026-04-22 17:00 11.89335 121.86941 2980 ft 234 kts 23°
2026-04-22 17:01 11.90968 121.87080 2985 ft 245 kts 352°
2026-04-22 17:01 11.92504 121.86304 2980 ft 254 kts 321°
2026-04-22 17:01 11.93493 121.84791 2985 ft 262 kts 290°
2026-04-22 17:01 11.93640 121.82941 2984 ft 265 kts 258°
2026-04-22 17:02 11.92909 121.81273 2979 ft 251 kts 226°
2026-04-22 17:02 11.91594 121.80260 2989 ft 240 kts 202°
2026-04-22 17:02 11.90080 121.79614 2991 ft 232 kts 188°
2026-04-22 17:02 11.88521 121.79669 2982 ft 222 kts 154°
2026-04-22 17:03 11.87290 121.80524 2918 ft 212 kts 124°
2026-04-22 17:03 11.86690 121.81842 2669 ft 203 kts 96°
2026-04-22 17:03 11.86777 121.83252 2453 ft 198 kts 78°
2026-04-22 17:03 11.86955 121.84179 2319 ft 196 kts 78°
2026-04-22 17:04 11.87458 121.85441 2112 ft 185 kts 63°
2026-04-22 17:04 11.88008 121.86520 1869 ft 166 kts 63°
2026-04-22 17:04 11.88532 121.87561 1639 ft 163 kts 64°
2026-04-22 17:04 11.89031 121.88552 1431 ft 149 kts 66°
2026-04-22 17:05 11.89500 121.89479 1287 ft 148 kts 64°
2026-04-22 17:05 11.89957 121.90407 994 ft 146 kts 63°
2026-04-22 17:05 11.90401 121.91328 862 ft 145 kts 64°
2026-04-22 17:05 11.90876 121.92235 583 ft 149 kts 65°
2026-04-22 17:06 11.91300 121.93171 415 ft 139 kts 63°
2026-04-22 17:06 11.91772 121.94042 236 ft 146 kts 60°
2026-04-22 17:06 11.92228 121.94944 66 ft 142 kts 62°
2026-04-22 17:06 11.92626 121.95730 27 ft 67 kts 64°
2026-04-22 17:07 11.92748 121.95982 27 ft 36 kts 63°
2026-04-22 17:07 11.92862 121.96205 28 ft 35 kts 62°
2026-04-22 17:07 11.92955 121.96388 25 ft 24 kts 63°
2026-04-22 17:07 11.92938 121.96470 27 ft 11 kts 153°
2026-04-22 17:08 11.92880 121.96500 26 ft 8 kts 153°
2026-04-22 17:08 11.92832 121.96525 26 ft 7 kts 153°
2026-04-22 17:08 11.92796 121.96516 26 ft 5 kts 227°
2026-04-22 17:08 11.92783 121.96484 26 ft 4 kts 267°
2026-04-22 17:09 11.92773 121.96465 26 ft 3 kts 239°
2026-04-22 17:09 11.92768 121.96458 -42 ft 0 kts 239°